Showing default

ICEYE-X37, 59102

Orbit data source: Space-Track

ICEYE-X37, 59102 is a payload satellite owned by ICEYE US (US) in SSO that was launched on Mon, 04 Mar 2024 UTC via an FALCON 9 launch vehicle from the Air Force Western Test Range (AFWTR). Payload-class satellites include a variety of spacecraft equipped with specific instruments for various scientific and technological missions. These include communications satellites like Starlink; space stations such as the ISS; scientific satellites like the Hubble; Earth observation satellites from companies like Planet Labs, Umbra, and HawkEye 360; GPS; miniature CubeSats for education and research; and military/defense satellites.

Loading next visibility...
Identifier
59102, 2024-043E
Orbit
SSO
Country
Flag of USUS
Related business
Manufacturer
ICEYE US
Mission
Operational Commercial Radar Imaging
Bus & Motor
ICEYE, Unknown motor
Mass
90 kg wet, 89 kg dry
Launch date (UTC)
2024-03-04 (2 years ago)
Launch vehicle
FALCON 9
Launch site
Air Force Western Test Range (AFWTR)
Object type
Payload
Rocket body
Debris
Shape & HBR
Box + 1 Pan, 1.6 m
Radar Cross Section
0.825 m², Medium (>0.1 m² and < 1m²)

Expand to show TLE details & history
Last TLE update: 18 hours ago

TLE from 18 hours ago
0 ICEYE-X37
1 59102U 24043E   26175.15647955  .00002455  00000-0  17186-3 0  9995
2 59102  97.8312 312.2670 0014704 351.4448   8.6525 15.06157135126138
Epoch: 2026-06-24T03:45Z
TLE epoch observation values (Epoch: 2026-06-24T03:45:19.833Z)
Latitude
-0.00005°
Longitude
-16.38337°
Altitude
540.945 km
Speed
7.597 km/s
True Right ascension
20h 49m 04s
True Declination
0° 00' 00"
Sunlit
Object was in full shadow at epoch
Visualization orbit readout
Latitude
Unknown
Longitude
Unknown
Altitude
Unknown
Speed
Unknown
Apparent Right ascension
Unknown
Apparent Declination
Unknown
Sunlit
N/A
Visualization observer readout
Local Sidereal Time
08:37:06
Azimuth
Unknown
Elevation
Unknown
Doppler factor
Unknown
Orbital elements
Apogee altitude
555.139 km
Perigee altitude
534.779 km
Semi-major axis
6,923.096 km
Eccentricity
0.00147
Inclination
97.8312°
RAAN
312.267°
Arg. of periapsis
351.4448°
True anomaly
8.67789°
Mean anomaly
8.6525°
Eccentric anomaly
8.66519°
Mean motion
3.76784 °/min
Orbital period
95.55 mins
BSTAR
0.00017186
Loading maneuver chart data...
Computing Atmospheric mass density...
Loading historical data...
Loading historical data...
Loading historical data...
Loading historical data...
Loading historical data...
Loading historical data...
Loading historical data...

Documentation

Showing up to 5 results
|